Location: Northcutt
(34.7304°N, 84.4305°W)
Time: 19:05:19
(UTC+00:00)

Transit 2A Rocket - Pass Details

Date: 12 October 2022
Orbit: 589 x 911 km, 66.7° (Epoch: 03 December)

Event Time Altitude Azimuth Distance (km) Brightness Sun altitude
Rises 19:30:18 0° 312° (NW) 3,151 8.2 38.2°
Reaches altitude 10° 19:33:21 10° 292° (WNW) 2,290 7.8 37.8°
Maximum altitude 19:36:39 17° 253° (WSW) 1,911 8.2 37.3°
Drops below altitude 10° 19:40:07 10° 214° (SW) 2,416 8.9 36.9°
Sets 19:43:29 0° 195° (SSW) 3,404 9.1 36.4°
